Location: Saint Louis
(38.6272°N, 90.1978°W)
Time: 21:06:01
(UTC-05:00)

ISS - Pass Details

Date: 02 February 2013
Orbit: 401 x 404 km, 51.6° (Epoch: 28 July)

Event Time Altitude Azimuth Distance (km) Brightness Sun altitude
Exits shadow 05:32:51 32° 206° (SSW) 734 -2.2 -18.3°
Drops below altitude 10° 05:35:24 10° 159° (SSE) 1,474 -0.1 -17.8°
Sets 05:37:36 0° 150° (SSE) 2,337 1.1 -17.4°
